Regional Weather Roundup
Issued by NWS Columbia, SC

Home | Current Version | Previous Version | Text Only | Print | Product List | Glossary On
Versions: 1 2 3 4 5 6 7 8 9 10 11 12 13 14 15 16 17 18 19 20 21 22 23 24 25 26 27
000
ASUS42 KCAE 211410
RWRCAE
REGIONAL WEATHER ROUNDUP
NATIONAL WEATHER SERVICE COLUMBIA SC
900 AM EST TUE FEB 21 2017

NOTE: "FAIR" INDICATES FEW OR NO CLOUDS BELOW 12,000 FEET WITH NO
SIGNIFICANT WEATHER AND/OR OBSTRUCTIONS TO VISIBILITY.

NOT ALL STATIONS ARE QUALITY CONTROLLED BY THE NATIONAL
WEATHER SERVICE. USE DATA WITH CAUTION...ESPECIALLY
DEWPOINT OBSERVATIONS.

SCZ001>056-GAZ040-063>065-077-211500-
...UPSTATE SOUTH CAROLINA...

CITY           SKY/WX    TMP DP  RH WIND       PRES   REMARKS
ANDERSON       MOSUNNY   55  45  68 E9        30.19S
LIBERTY        MOSUNNY   53  41  63 E7        30.19S
SPARTANBURG    CLOUDY    50  41  71 E5        30.22S
CLEMSON        CLOUDY    54  42  64 E3        30.20S
GREENVILLE     CLOUDY    57  43  59 NE6       30.22R
GREENWOOD      CLOUDY    52  45  77 NE5       30.21S
GREER          CLOUDY    54  42  64 N7        30.21R
ROCK HILL      CLOUDY    53  45  74 SE6       30.24R
CHESTER        MOSUNNY   52  46  82 E6        30.23S
LAURENS        PTSUNNY   50  45  81 NE3       30.21S


...CENTRAL SOUTH CAROLINA...

CITY           SKY/WX    TMP DP  RH WIND       PRES   REMARKS
COLUMBIA APT   PTSUNNY   55  49  80 E6        30.20S
COLUMBIA OWENS MOSUNNY   57  49  74 E3        30.21F
MCENTIRE ANGB  CLOUDY    56  50  80 E8        30.21R
ORANGEBURG     CLOUDY    56  52  86 E5        30.19S
SUMTER SHAW    PTSUNNY   53  49  84 NE7       30.19S
AIKEN          FAIR      55  50  82 E6        30.22R
BARNWELL       FAIR      59  55  88 E7        30.19R
MANNING        FAIR      55  43  62 MISG      30.21S
CAMDEN         FAIR      54  46  76 CALM      30.23S
LANCASTER      CLOUDY    54  46  76 E10       30.23S
WINNSBORO      CLOUDY    55  48  76 E7        30.21S


...EASTERN AND COASTAL SOUTH CAROLINA...

CITY           SKY/WX    TMP DP  RH WIND       PRES   REMARKS
MYRTLE BEACH   SUNNY     57  52  82 E9        30.25R
N MYRTLE BCH   CLOUDY    59  52  77 E9        30.23S
CONWAY         FAIR      55  50  82 NE3       30.24S HAZE
MARION         FAIR      52  45  76 E7        30.25S
HARTSVILLE     FAIR      52  43  71 E9        30.23S
FLORENCE       CLOUDY    54  48  80 E10       30.24S
DARLINGTON     PTSUNNY   53  45  74 E8        30.25S
CHARLESTON APT PTSUNNY   62  54  74 E9        30.19R
MOUNT PLEASANT FAIR      63  55  77 E5        30.20R
WALTERBORO     CLOUDY    57  54  88 E7        30.19F
BEAUFORT       CLOUDY    62  59  90 E5        30.17F


...EASTERN GEORGIA...

CITY           SKY/WX    TMP DP  RH WIND       PRES   REMARKS
AUGUSTA BUSH F PTSUNNY   56  50  80 CALM      30.18R HAZE
AUGUSTA DANIEL MOSUNNY   59  49  69 E5        30.18R
THOMSON        CLOUDY    54  53  94 CALM      30.21S
WASHINGTON     FAIR      55  52  88 E3        30.17S
CLAXTON        FAIR     N/A N/A N/A CALM      30.16S
SYLVANIA       CLOUDY   N/A N/A N/A SE8       30.17S
STATESBORO     MOSUNNY   63  59  88 SE6       30.16S
SAVANNAH       PTSUNNY   63  58  83 E8        30.16S


...SOUTHERN NORTH CAROLINA...

CITY           SKY/WX    TMP DP  RH WIND       PRES   REMARKS
CHARLOTTE      CLOUDY    54  41  61 SE9       30.24S
MONROE         CLOUDY    51  41  68 E5        30.24R
WADESBORO      MOSUNNY   51  42  71 CALM      30.25F
ROCKINGHAM     CLOUDY    52  42  67 E8        30.25S
RUTHERFORDTON  CLOUDY    52  40  65 CALM      30.24S
ASHEVILLE      MOSUNNY   43  36  76 SE3       30.22S

$$




USA.gov is the U.S. government's official web portal to all federal, state and local government web resources and services.